EW5897 Weather Reports


time (UTC)temp
C
wind
direction
speed
KPH
gust
KPH
rain 1hr
cm
rain 24hr
cm
rain mn
cm
humidity
%
barometer
mb
20260502193857 15 288 27.4 38.6 0.00 0.00 0.00 39 1011.6
20260502191856 15 5 27.4 41.8 0.00 0.00 0.00 39 1011.7
20260502185912 15 301 29.0 38.6 0.00 0.00 0.00 40 1011.5
20260502184400 15 18 29.0 40.2 0.00 0.00 0.00 40 1011.3
20260502182859 15 294 27.4 45.1 0.00 0.00 0.00 41 1011.7
20260502180916 15 300 27.4 38.6 0.00 0.00 0.00 41 1011.4
20260502170352 14 297 27.4 45.1 0.00 0.00 0.00 54 1011.2
20260502162856 13 302 25.7 37.0 0.00 0.00 0.00 58 1011.1
20260502160912 13 10 20.9 32.2 0.00 0.00 0.00 58 1010.9
20260502151356 12 288 22.5 38.6 0.00 0.00 0.00 64 1010.4
20260502122404 6 315 27.4 38.6 0.00 0.00 0.00 75 1007.6
20260502120408 5 311 25.7 35.4 0.00 0.00 0.00 77 1007.3
20260502114853 6 306 22.5 35.4 0.00 0.00 0.00 77 1007.4
20260502113348 6 306 17.7 30.6 0.00 0.00 0.00 76 1007.4
20260502111409 6 273 16.1 25.7 0.00 0.00 0.00 76 1007.2
20260502105857 7 274 14.5 19.3 0.00 0.00 0.00 75 1007.2
20260502103914 7 269 11.3 16.1 0.00 0.00 0.00 73 1007.0
20260502101850 8 273 9.7 16.1 0.00 0.00 0.00 70 1007.1
20260502090852 6 249 0.0 3.2 0.00 0.00 0.00 71 1006.7
20260502070858 9 150 4.8 11.3 0.00 0.00 0.00 54 1007.2
20260502064920 10 109 3.2 6.4 0.00 0.00 0.00 54 1007.5
20260502063414 10 98 1.6 8.0 0.00 0.00 0.00 53 1007.8
20260502061910 10 91 0.0 6.4 0.00 0.00 0.00 52 1008.3
20260502055925 10 103 0.0 6.4 0.00 0.00 0.00 51 1008.7
20260502054409 10 94 1.6 4.8 0.00 0.00 0.00 52 1008.7
20260502052412 9 92 3.2 6.4 0.00 0.00 0.00 57 1008.9
20260502050419 10 86 3.2 9.7 0.00 0.00 0.00 52 1008.9
20260502044916 11 119 0.0 3.2 0.00 0.00 0.00 48 1009.1
20260502042924 11 119 1.6 3.2 0.00 0.00 0.00 51 1009.1
20260502041357 10 110 1.6 4.8 0.00 0.00 0.00 50 1009.2
20260502035424 10 143 0.0 4.8 0.00 0.00 0.00 49 1009.6
20260502033917 11 170 1.6 6.4 0.00 0.00 0.00 46 1009.6
20260502032417 11 147 1.6 4.8 0.00 0.00 0.00 43 1009.7
20260502030914 11 123 1.6 4.8 0.00 0.00 0.00 42 1009.7
20260502024917 12 134 1.6 4.8 0.00 0.00 0.00 42 1010.1
20260502023358 12 131 1.6 4.8 0.00 0.00 0.00 43 1010.3
20260502021419 13 132 3.2 6.4 0.00 0.00 0.00 37 1010.5
20260502015916 13 171 0.0 3.2 0.00 0.00 0.00 40 1010.7
20260502013919 15 167 1.6 4.8 0.00 0.00 0.00 35 1010.9
20260502012412 16 155 0.0 4.8 0.00 0.00 0.00 32 1011.1
20260502010420 17 166 4.8 8.0 0.00 0.00 0.00 29 1011.2
20260502004910 18 185 6.4 16.1 0.00 0.00 0.00 27 1011.2
20260502002420 18 174 9.7 16.1 0.00 0.00 0.00 28 1011.2
20260502000909 19 193 12.9 22.5 0.00 0.00 0.00 27 1011.3
20260501235405 19 194 12.9 20.9 0.00 0.00 0.00 27 1011.3
20260501233404 19 196 17.7 24.1 0.00 0.00 0.00 25 1011.5
20260501231421 19 187 12.9 20.9 0.00 0.00 0.00 28 1011.7
20260501225418 19 200 14.5 22.5 0.00 0.00 0.00 26 1012.0
20260501223415 19 169 16.1 22.5 0.00 0.00 0.00 26 1012.2
20260501221906 19 211 9.7 24.1 0.00 0.00 0.00 28 1012.4
20260501215919 19 235 11.3 19.3 0.00 0.00 0.00 29 1012.6
20260501213914 18 211 12.9 29.0 0.00 0.00 0.00 28 1012.9
20260501212410 18 229 12.9 19.3 0.00 0.00 0.00 29 1013.1
20260501210419 18 179 9.7 24.1 0.00 0.00 0.00 29 1013.5
20260501204907 18 217 12.9 27.4 0.00 0.00 0.00 30 1013.7
20260501202912 18 209 11.3 22.5 0.00 0.00 0.00 31 1013.6
20260501201411 17 194 8.0 25.7 0.00 0.00 0.00 30 1014.0
20260501195414 18 200 8.0 30.6 0.00 0.00 0.00 30 1014.2